Location: Brunsbüttel
(52.3892°N, 10.6138°E)
Time: 20:13:45
(UTC+00:00)

Spot 1 - Pass Details

Date: 19 May 2025
Orbit: 568 x 753 km, 98.7° (Epoch: 20 June)

Event Time Altitude Azimuth Distance (km) Brightness Sun altitude
Rises 23:17:39 0° 13° (NNE) 2,851 9.0 -17.6°
Reaches altitude 10° 23:19:47 10° 10° (N) 1,966 7.9 -17.6°
Maximum altitude 23:24:00 63° 290° (WNW) 705 4.3 -17.6°
Enters shadow 23:26:08 29° 218° (SW) 1,178 5.0 -17.6°
